Regional Weather Roundup
Issued by NWS

Home | Current Version | Previous Version | Graphics & Text | Print | Product List | Glossary On
Versions: 1 2 3 4 5 6 7 8 9 10 11 12 13 14 15 16 17 18 19 20 21 22 23 24 25 26 27 28 29 30 31 32 33 34 35 36 37 38 39 40 41 42 43 44 45 46 47 48 49 50
000
ASUS43 KBIS 300601
RWRND

NORTH DAKOTA REGIONAL WEATHER ROUNDUP
NATIONAL WEATHER SERVICE BISMARCK ND
100 AM CDT MON MAR 30 2015

NOTE: "FAIR" INDICATES FEW OR NO CLOUDS BELOW 12,000 FEET WITH NO
SIGNIFICANT WEATHER AND/OR OBSTRUCTIONS TO VISIBILITY.


NDZ001>003-009>011-017-300700-
NORTHWEST NORTH DAKOTA

CITY           SKY/WX    TMP DP  RH WIND       PRES   REMARKS
WILLISTON      MOCLDY    42  33  70 SW7       29.87S
6HR MIN TEMP:  40; 6HR MAX TEMP:  59;

MINOT          MOCLDY    39  31  72 SE3       29.86F
MINOT AFB      MOCLDY    35  35  99 S8        29.85F
$$

NDZ018>021-031>035-040>046-300700-
SOUTHWEST NORTH DAKOTA

CITY           SKY/WX    TMP DP  RH WIND       PRES   REMARKS
BISMARCK       PTCLDY    38  31  76 CALM      29.93F
6HR MIN TEMP:  36; 6HR MAX TEMP:  59;

DICKINSON      CLEAR     39  28  64 SW8       29.91F
GARRISON         N/A     38  30  73 S3        29.88F
6HR MIN TEMP:  36; 6HR MAX TEMP:  57;

HETTINGER ARPT PTCLDY    30  25  81 CALM      29.97F
$$

NDZ004>008-012>016-024-026-027-054-300700-
NORTHEAST NORTH DAKOTA

CITY           SKY/WX    TMP DP  RH WIND       PRES   REMARKS
GRAND FORKS    CLEAR     32  27  81 W7        29.90S
DEVILS LAKE    CLOUDY    30  27  86 CALM      29.89F
$$

NDZ022-023-025-028>030-036>039-047>053-300700-
SOUTHEAST NORTH DAKOTA

CITY           SKY/WX    TMP DP  RH WIND       PRES   REMARKS
FARGO          CLEAR     34  26  72 W7        29.93R
6HR MIN TEMP:  34; 6HR MAX TEMP:  55;

JAMESTOWN      PTCLDY    34  29  82 CALM      29.91F
$$




USA.gov is the U.S. government's official web portal to all federal, state and local government web resources and services.